Change the Weather History Date:

Sunday, January 6, 2013

  Actual Average Record
Temperature  
Mean Temperature 30 °F 29 °F  
Max Temperature 36 °F 38 °F 72 °F (1907)
Min Temperature 23 °F 21 °F -12 °F (1919)
Degree Days  
Heating Degree Days 35 36  
Month to date heating degree days 234 212  
Since 1 July heating degree days 1999 2207  
Cooling Degree Days 0 0  
Month to date cooling degree days 0 0  
Year to date cooling degree days 0 0  
Moisture  
Dew Point 20 °F    
Average Humidity 67    
Maximum Humidity 82    
Minimum Humidity 52    
Precipitation  
Precipitation 0.00 in 0.06 in 0.70 in (1930)
Month to date precipitation 0.02 0.39  
Year to date precipitation 0.02 0.39  
Snow  
Snow 0.00 in 0.20 in 5.00 in (1940)
Month to date snowfall T 1.1  
Since 1 July snowfall 3.7 6.4  
Snow Depth T in    
Sea Level Pressure  
Sea Level Pressure 30.31 in    
Wind  
Wind Speed 9 mph (WNW)    
Max Wind Speed 21 mph    
Max Gust Speed 28 mph    
Visibility 10 miles    
Events      
T = Trace of Precipitation, MM = Missing Value Source: NWS Daily Summary

Daily Weather History Graph

Daily Weather History Graph

Search for Another Location

Airport or City:

Trip Planner

Search our weather history database for the weather conditions in past years. The results will help you decide how hot, cold, wet, or windy it might be!

Date:

Astronomy

Jan. 06, 2013 Rise Set
Actual Time 7:27 AM CST 5:02 PM CST
Civil Twilight 6:57 AM CST 5:32 PM CST
Nautical Twilight 6:24 AM CST 6:05 PM CST
Astronomical Twilight 5:52 AM CST 6:37 PM CST
Moon 1:43 AM CST (1/6) 12:28 PM CST (1/6)
Length of Visible Light 10h 34m
Length of Day
9h 34m
Waning Crescent, 33% of the Moon is Illuminated
Jan 6
Waning Crescent
Jan 11
New
Jan 18
First Quarter
Jan 26
Full
Feb 3
Last Quarter

Hourly Weather History & Observations

Time (CST) Temp. Windchill Dew Point Humidity Pressure Visibility Wind Dir Wind Speed Gust Speed Precip Events Conditions
12:54 AM 34.0 °F 26.6 °F 28.0 °F 79% 30.13 in 10.0 mi West 9.2 mph - N/A   Clear
1:54 AM 32.0 °F 24.8 °F 26.1 °F 79% 30.15 in 10.0 mi West 8.1 mph - N/A   Clear
2:54 AM 30.9 °F 22.2 °F 25.0 °F 79% 30.16 in 10.0 mi West 10.4 mph - N/A   Clear
3:54 AM 30.9 °F 22.2 °F 23.0 °F 72% 30.16 in 10.0 mi WNW 10.4 mph - N/A   Mostly Cloudy
4:54 AM 28.9 °F 15.8 °F 21.0 °F 72% 30.19 in 10.0 mi NW 20.7 mph 27.6 mph N/A   Overcast
6:54 AM 28.9 °F 16.5 °F 19.9 °F 69% 30.25 in 10.0 mi NW 18.4 mph 23.0 mph N/A   Overcast
7:54 AM 28.9 °F 19.2 °F 19.9 °F 69% 30.27 in 10.0 mi WNW 11.5 mph - N/A   Overcast
8:26 AM 28.4 °F 18.5 °F 19.4 °F 69% 30.26 in 10.0 mi WNW 11.5 mph - N/A   Scattered Clouds
8:46 AM 28.4 °F 16.6 °F 19.4 °F 69% 30.27 in 9.0 mi WNW 16.1 mph - N/A   Mostly Cloudy
8:54 AM 28.0 °F 17.0 °F 19.9 °F 72% 30.30 in 9.0 mi WNW 13.8 mph - N/A   Mostly Cloudy
9:37 AM 26.6 °F 14.3 °F 19.4 °F 74% 30.31 in 8.0 mi NW 16.1 mph - N/A   Overcast
9:54 AM 25.0 °F 12.2 °F 19.0 °F 78% 30.35 in 9.0 mi WNW 16.1 mph - N/A   Overcast
10:45 AM 28.4 °F 18.0 °F 19.4 °F 69% 30.33 in 10.0 mi NW 12.7 mph - N/A   Scattered Clouds
10:54 AM 28.0 °F 18.6 °F 19.0 °F 69% 30.36 in 10.0 mi NW 10.4 mph - N/A   Partly Cloudy
11:54 AM 30.9 °F 23.5 °F 19.9 °F 64% 30.35 in 10.0 mi WNW 8.1 mph - N/A   Clear
12:54 PM 33.1 °F 24.4 °F 21.0 °F 61% 30.33 in 10.0 mi West 11.5 mph - N/A   Clear
1:54 PM 34.0 °F 26.6 °F 19.9 °F 56% 30.34 in 10.0 mi NW 9.2 mph - N/A   Clear
2:54 PM 35.1 °F 27.9 °F 19.9 °F 54% 30.35 in 10.0 mi WNW 9.2 mph - N/A   Clear
3:54 PM 35.1 °F 30.1 °F 19.9 °F 54% 30.35 in 10.0 mi WNW 5.8 mph - N/A   Clear
4:54 PM 32.0 °F 27.5 °F 19.0 °F 59% 30.36 in 10.0 mi West 4.6 mph - N/A   Clear
5:54 PM 30.9 °F - 19.0 °F 61% 30.37 in 10.0 mi Calm Calm - N/A   Clear
6:54 PM 30.0 °F 26.5 °F 19.0 °F 64% 30.38 in 10.0 mi West 3.5 mph - N/A   Clear
7:54 PM 28.0 °F - 19.9 °F 72% 30.39 in 10.0 mi Calm Calm - N/A   Clear
8:54 PM 25.0 °F 19.3 °F 19.9 °F 81% 30.38 in 10.0 mi South 4.6 mph - N/A   Clear
9:54 PM 25.0 °F 19.3 °F 19.0 °F 78% 30.38 in 10.0 mi South 4.6 mph - N/A   Clear
10:54 PM 26.1 °F 20.5 °F 19.0 °F 75% 30.38 in 10.0 mi South 4.6 mph - N/A   Clear
11:54 PM 24.1 °F 17.0 °F 19.0 °F 81% 30.38 in 10.0 mi South 5.8 mph - N/A   Clear